Portsmouth, NH

11:54 AM EDT on June 27, 2017 (GMT -0400)
Pease International Tradeport

Weather History for KPSM - March, 2012

Change the Weather History Date:

Sunday, March 25, 2012

  Actual Average Record
Temperature  
Mean Temperature 43 °F -  
Max Temperature 45 °F 44 °F 67 °F (1987)
Min Temperature 41 °F 29 °F 12 °F (1992)
Degree Days  
Heating Degree Days 22    
Moisture  
Dew Point 37 °F    
Average Humidity 81    
Maximum Humidity 93    
Minimum Humidity 61    
Precipitation  
Precipitation 0.06 in - - ()
Sea Level Pressure  
Sea Level Pressure 29.90 in    
Wind  
Wind Speed 4 mph (ESE)    
Max Wind Speed 13 mph    
Max Gust Speed -    
Visibility 9 miles    
Events Rain    
Averages and records for this station are not official NWS values.
T = Trace of Precipitation, MM = Missing Value Source: NWS Daily Summary

Daily Weather History Graph

Daily Weather History Graph

Search for Another Location

Airport or City:

Trip Planner

Search our weather history database for the weather conditions in past years. The results will help you decide how hot, cold, wet, or windy it might be!

Date:

Astronomy

Mar. 25, 2012 Rise Set
Actual Time 6:36 AM EDT 7:02 PM EDT
Civil Twilight 6:08 AM EDT 7:30 PM EDT
Nautical Twilight 5:34 AM EDT 8:04 PM EDT
Astronomical Twilight 5:00 AM EDT 8:38 PM EDT
Moon 7:41 AM EDT (3/25) 10:21 PM EDT (3/25)
Length of Visible Light 13h 22m
Length of Day
12h 25m
Waxing Crescent, 8% of the Moon is Illuminated
Mar 25
Waxing Crescent
Mar 30
First Quarter
Apr 6
Full
Apr 13
Last Quarter
Apr 21
New

Hourly Weather History & Observations

Time (EDT) Temp. Windchill Dew Point Humidity Pressure Visibility Wind Dir Wind Speed Gust Speed Precip Events Conditions
12:55 AM 45.0 °F 43.5 °F 32.2 °F 61% 30.04 in 10.0 mi South 3.5 mph - N/A   Overcast
1:55 AM 44.8 °F 43.3 °F 34.2 °F 66% 30.03 in 10.0 mi South 3.5 mph - N/A   Overcast
2:55 AM 44.8 °F 42.4 °F 35.4 °F 70% 30.00 in 10.0 mi SSE 4.6 mph - N/A   Overcast
3:29 AM 44.6 °F 43.1 °F 35.6 °F 71% 29.99 in 10.0 mi South 3.5 mph - N/A Rain Light Rain
3:55 AM 44.4 °F - 37.8 °F 77% 29.99 in 10.0 mi Calm Calm - 0.00 in Rain Light Rain
4:55 AM 43.5 °F - 40.6 °F 90% 29.98 in 10.0 mi Calm Calm - 0.01 in   Light Drizzle
5:55 AM 44.1 °F - 41.4 °F 90% 29.97 in 10.0 mi Calm Calm - 0.00 in Rain Light Rain
6:55 AM 44.1 °F 41.5 °F 42.3 °F 93% 29.97 in 7.0 mi SSE 4.6 mph - 0.01 in Rain Light Rain
7:55 AM 43.9 °F 42.3 °F 39.7 °F 85% 29.97 in 10.0 mi South 3.5 mph - 0.00 in Rain Light Rain
8:55 AM 43.7 °F 42.1 °F 37.2 °F 78% 29.96 in 7.0 mi South 3.5 mph - 0.02 in Rain Light Rain
9:55 AM 43.5 °F 40.9 °F 37.4 °F 79% 29.96 in 10.0 mi ESE 4.6 mph - 0.02 in Rain Light Rain
10:55 AM 43.7 °F 41.1 °F 37.8 °F 80% 29.95 in 10.0 mi ENE 4.6 mph - 0.00 in   Overcast
11:55 AM 43.3 °F 39.2 °F 34.7 °F 72% 29.93 in 10.0 mi ENE 6.9 mph - N/A   Overcast
12:55 PM 44.1 °F 39.5 °F 33.3 °F 66% 29.92 in 10.0 mi NE 8.1 mph - N/A   Overcast
1:55 PM 43.7 °F 39.7 °F 34.9 °F 71% 29.89 in 10.0 mi ENE 6.9 mph - N/A   Overcast
2:13 PM 42.8 °F 38.6 °F 35.6 °F 76% 29.89 in 7.0 mi East 6.9 mph - N/A Rain Light Rain Showers
2:55 PM 41.5 °F 34.6 °F 37.4 °F 85% 29.87 in 4.0 mi East 12.7 mph - 0.00 in   Light Drizzle
4:31 PM 41.0 °F 35.8 °F 39.2 °F 93% 29.83 in 7.0 mi East 8.1 mph - N/A   Light Drizzle
4:55 PM 41.4 °F 35.7 °F 38.7 °F 90% 29.82 in 10.0 mi East 9.2 mph - 0.00 in   Overcast
5:55 PM 41.7 °F 38.8 °F 38.3 °F 88% 29.82 in 10.0 mi ENE 4.6 mph - N/A   Overcast
6:55 PM 41.5 °F 37.8 °F 37.9 °F 87% 29.80 in 10.0 mi East 5.8 mph - N/A   Overcast
7:55 PM 41.5 °F 39.6 °F 37.4 °F 85% 29.81 in 10.0 mi North 3.5 mph - N/A   Overcast
8:55 PM 41.5 °F - 38.7 °F 89% 29.79 in 10.0 mi Calm Calm - N/A   Overcast
9:55 PM 41.7 °F - 38.7 °F 89% 29.76 in 10.0 mi Calm Calm - N/A   Overcast
10:55 PM 41.5 °F 39.6 °F 38.7 °F 89% 29.73 in 10.0 mi NW 3.5 mph - N/A   Overcast
11:55 PM 41.2 °F 37.3 °F 37.9 °F 88% 29.72 in 10.0 mi WNW 5.8 mph - N/A   Overcast